Location: New Canada
(47.1017°N, 68.5042°W)
Time: 16:25:17
(UTC+00:00)

KKS-1 - Pass Details

Date: 25 April 2024
Orbit: 628 x 639 km, 98.1° (Epoch: 21 May)

Event Time Altitude Azimuth Distance (km) Brightness Sun altitude
Rises 04:24:51 0° 8° (N) 2,958 ? -29.5°
Reaches altitude 10° 04:27:07 10° 3° (N) 2,044 ? -29.5°
Enters shadow 04:30:23 40° 329° (NNW) 950 ? -29.5°
